CW1032 Weather Reports


Display with metric or nautical units.
time (UTC)temp
F
wind
direction
speed
MPH
gust
MPH
rain 1hr
in
rain 24hr
in
rain mn
in
humidity
%
barometer
mb
20260505070054 54 0 0.0 0.0 0.00 0.00 0.00 79 1010.4
20260505065550 54 0 0.0 0.0 0.00 0.00 0.00 78 1010.3
20260505065049 55 0 0.0 0.0 0.00 0.00 0.00 78 1010.2
20260505064552 55 0 0.0 0.0 0.00 0.00 0.00 78 1010.4
20260505064049 55 0 0.0 0.0 0.00 0.00 0.00 78 1010.4
20260505063549 55 0 0.0 0.0 0.00 0.00 0.00 78 1010.3
20260505063052 55 0 0.0 0.0 0.00 0.00 0.00 77 1010.4
20260505062551 55 0 0.0 0.0 0.00 0.00 0.00 77 1010.3
20260505062049 55 0 0.0 0.0 0.00 0.00 0.00 77 1010.3
20260505061558 55 0 0.0 0.0 0.00 0.00 0.00 77 1010.2
20260505061049 56 0 0.0 0.0 0.00 0.00 0.00 77 1010.4
20260505060549 55 0 0.0 0.0 0.00 0.00 0.00 76 1010.5
20260505060056 56 0 0.0 0.0 0.00 0.00 0.00 77 1010.5
20260505055549 55 0 0.0 0.0 0.00 0.00 0.00 76 1010.4
20260505055049 55 0 0.0 0.0 0.00 0.00 0.00 77 1010.4
20260505054624 55 0 0.0 0.0 0.00 0.00 0.00 76 1010.4
20260505054051 55 0 0.0 0.0 0.00 0.00 0.00 77 1010.4
20260505053550 55 0 0.0 0.0 0.00 0.00 0.00 76 1010.4
20260505053107 55 0 0.0 0.0 0.00 0.00 0.00 76 1010.6
20260505052551 55 0 0.0 0.0 0.00 0.00 0.00 76 1010.5
20260505052049 55 0 0.0 0.0 0.00 0.00 0.00 76 1010.4
20260505051553 55 0 0.0 0.0 0.00 0.00 0.00 75 1010.6
20260505051050 55 0 0.0 0.0 0.00 0.00 0.00 76 1010.5
20260505050550 55 0 0.0 0.0 0.00 0.00 0.00 75 1010.5
20260505041601 56 0 0.0 0.0 0.00 0.00 0.00 72 1010.4
20260505041050 57 0 0.0 1.0 0.00 0.00 0.00 71 1010.4
20260505040550 57 0 0.0 1.0 0.00 0.00 0.00 71 1010.4
20260505040057 57 324 0.0 0.0 0.00 0.00 0.00 71 1010.4
20260505035549 57 0 0.0 0.0 0.00 0.00 0.00 71 1010.3
20260505035049 57 0 0.0 0.0 0.00 0.00 0.00 70 1010.3
20260505034555 57 0 0.0 0.0 0.00 0.00 0.00 71 1010.3
20260505034050 58 0 0.0 0.0 0.00 0.00 0.00 70 1010.3
20260505033549 58 0 0.0 0.0 0.00 0.00 0.00 69 1010.4
20260505033055 58 0 0.0 0.0 0.00 0.00 0.00 69 1010.3
20260505032549 59 0 0.0 0.0 0.00 0.00 0.00 68 1010.4
20260505032048 59 0 0.0 0.0 0.00 0.00 0.00 67 1010.3
20260505031608 59 0 0.0 0.0 0.00 0.00 0.00 67 1010.3
20260505031049 59 0 0.0 0.0 0.00 0.00 0.00 67 1010.2
20260505030549 59 0 0.0 0.0 0.00 0.00 0.00 67 1010.3
20260505030050 59 324 0.0 0.0 0.00 0.00 0.00 67 1010.3
20260505025550 59 0 0.0 0.0 0.00 0.00 0.00 67 1010.2
20260505025050 59 0 0.0 0.0 0.00 0.00 0.00 67 1010.3
20260505024551 59 0 0.0 0.0 0.00 0.00 0.00 67 1010.4
20260505024049 59 0 0.0 0.0 0.00 0.00 0.00 67 1010.3
20260505023552 59 0 0.0 0.0 0.00 0.00 0.00 66 1010.3
20260505023106 60 0 0.0 0.0 0.00 0.00 0.00 67 1010.3
20260505022549 60 0 0.0 0.0 0.00 0.00 0.00 65 1010.3
20260505022049 60 0 0.0 0.0 0.00 0.00 0.00 65 1010.2
20260505021552 61 0 0.0 0.0 0.00 0.00 0.00 64 1010.2
20260505021051 61 0 0.0 1.0 0.00 0.00 0.00 63 1010.3
20260505020552 62 0 0.0 1.0 0.00 0.00 0.00 63 1010.4
20260505020049 62 0 0.0 1.0 0.00 0.00 0.00 61 1010.4
20260505015549 62 0 0.0 1.0 0.00 0.00 0.00 61 1010.4
20260505015049 62 0 0.0 1.0 0.00 0.00 0.00 61 1010.3
20260505014556 62 0 0.0 1.0 0.00 0.00 0.00 61 1010.1
20260505014048 62 0 0.0 2.0 0.00 0.00 0.00 60 1010.0
20260505013548 62 324 0.0 2.0 0.00 0.00 0.00 60 1010.0
20260505013107 62 0 0.0 0.0 0.00 0.00 0.00 61 1010.1
20260505012550 62 0 0.0 0.0 0.00 0.00 0.00 61 1010.0
20260505012050 62 0 0.0 0.0 0.00 0.00 0.00 61 1010.0
20260505011552 62 0 0.0 0.0 0.00 0.00 0.00 61 1009.8
20260505011049 62 0 0.0 0.0 0.00 0.00 0.00 61 1009.7
20260505010549 62 0 0.0 0.0 0.00 0.00 0.00 60 1009.8
20260505010053 63 0 0.0 0.0 0.00 0.00 0.00 60 1009.8
20260505005549 63 0 0.0 0.0 0.00 0.00 0.00 59 1009.7
20260505005050 63 0 0.0 0.0 0.00 0.00 0.00 58 1009.7
20260505004558 64 0 0.0 0.0 0.00 0.00 0.00 58 1009.7
20260505004049 64 0 0.0 0.0 0.00 0.00 0.00 57 1009.7
20260505003550 64 0 0.0 0.0 0.00 0.00 0.00 56 1009.7
20260505003054 65 0 0.0 0.0 0.00 0.00 0.00 55 1009.7
20260505002550 65 0 0.0 1.0 0.00 0.00 0.00 54 1009.7
20260505002050 66 0 0.0 1.0 0.00 0.00 0.00 53 1009.7
20260505001555 66 330 0.0 1.0 0.00 0.00 0.00 53 1009.7
20260505001050 66 0 0.0 3.0 0.00 0.00 0.00 52 1009.6
20260505000549 66 0 0.0 4.0 0.00 0.00 0.00 52 1009.5
20260505000107 67 311 0.0 4.0 0.00 0.00 0.00 51 1009.5
20260504235550 67 0 0.0 3.0 0.00 0.00 0.00 51 1009.5
20260504235050 67 0 0.0 4.0 0.00 0.00 0.00 51 1009.5
20260504234550 68 331 0.0 6.0 0.00 0.00 0.00 50 1009.5
20260504234049 68 320 2.0 6.0 0.00 0.00 0.00 50 1009.5
20260504233550 68 179 0.0 6.0 0.00 0.00 0.00 50 1009.5
20260504233056 69 182 0.0 5.0 0.00 0.00 0.00 49 1009.5
20260504232550 69 337 0.0 3.0 0.00 0.00 0.00 49 1009.5
20260504232049 69 105 0.0 6.0 0.00 0.00 0.00 48 1009.5
20260504231554 70 310 1.0 7.0 0.00 0.00 0.00 48 1009.4
20260504231050 70 149 2.0 7.0 0.00 0.00 0.00 48 1009.5
20260504230551 70 30 1.0 4.0 0.00 0.00 0.00 47 1009.6
20260504230106 70 324 0.0 4.0 0.00 0.00 0.00 46 1009.6
20260504225549 71 281 1.0 6.0 0.00 0.00 0.00 46 1009.5
20260504225049 71 89 2.0 6.0 0.00 0.00 0.00 46 1009.4
20260504224555 71 210 1.0 6.0 0.00 0.00 0.00 45 1009.5
20260504224051 72 250 0.0 3.0 0.00 0.00 0.00 46 1009.4
20260504223550 72 293 0.0 2.0 0.00 0.00 0.00 45 1009.3
20260504223103 72 0 0.0 8.0 0.00 0.00 0.00 45 1009.3
20260504222549 73 293 0.0 8.0 0.00 0.00 0.00 42 1009.2
20260504222050 73 146 2.0 9.0 0.00 0.00 0.00 39 1009.3
20260504221603 74 292 3.0 9.0 0.00 0.00 0.00 39 1009.3
20260504221049 75 73 3.0 10.0 0.00 0.00 0.00 38 1009.3
20260504220551 76 152 1.0 10.0 0.00 0.00 0.00 39 1009.3
20260504220100 76 19 3.0 10.0 0.00 0.00 0.00 38 1009.2
20260504215553 76 0 1.0 11.0 0.00 0.00 0.00 38 1009.3
20260504215053 76 150 2.0 11.0 0.00 0.00 0.00 38 1009.3
20260504214558 76 314 1.0 6.0 0.00 0.00 0.00 38 1009.5
20260504214050 76 306 2.0 6.0 0.00 0.00 0.00 38 1009.4
20260504213550 76 158 0.0 8.0 0.00 0.00 0.00 40 1009.4
20260504213053 76 0 2.0 9.0 0.00 0.00 0.00 39 1009.4
20260504212550 76 297 2.0 9.0 0.00 0.00 0.00 39 1009.5
20260504212053 76 298 3.0 9.0 0.00 0.00 0.00 39 1009.6
20260504211553 76 286 3.0 8.0 0.00 0.00 0.00 37 1009.6
20260504211049 76 296 2.0 9.0 0.00 0.00 0.00 39 1009.6
20260504210549 76 111 2.0 9.0 0.00 0.00 0.00 39 1009.4
20260504210056 76 127 1.0 9.0 0.00 0.00 0.00 41 1009.5
20260504205550 76 106 3.0 9.0 0.00 0.00 0.00 38 1009.4
20260504205049 76 318 2.0 7.0 0.00 0.00 0.00 38 1009.4
20260504204600 76 263 1.0 11.0 0.00 0.00 0.00 39 1009.5
20260504204049 76 322 2.0 11.0 0.00 0.00 0.00 38 1009.5
20260504203551 75 314 2.0 7.0 0.00 0.00 0.00 41 1009.6
20260504203102 75 193 2.0 11.0 0.00 0.00 0.00 39 1009.7
20260504202549 75 128 3.0 11.0 0.00 0.00 0.00 40 1009.6
20260504202049 76 140 2.0 7.0 0.00 0.00 0.00 39 1009.8
20260504201601 75 301 2.0 8.0 0.00 0.00 0.00 39 1009.6
20260504201052 75 303 1.0 10.0 0.00 0.00 0.00 39 1009.9
20260504200550 75 167 2.0 10.0 0.00 0.00 0.00 38 1010.0
20260504200054 75 274 3.0 10.0 0.00 0.00 0.00 38 1010.0
20260504195549 75 88 2.0 10.0 0.00 0.00 0.00 38 1010.0
20260504195049 75 294 3.0 10.0 0.00 0.00 0.00 40 1010.3
20260504194553 76 140 2.0 8.0 0.00 0.00 0.00 39 1010.3
20260504194050 75 148 2.0 8.0 0.00 0.00 0.00 38 1010.3
20260504193550 75 333 2.0 9.0 0.00 0.00 0.00 38 1010.3
20260504193056 75 95 3.0 9.0 0.00 0.00 0.00 38 1010.5
20260504192549 75 298 2.0 9.0 0.00 0.00 0.00 41 1010.6
20260504192052 74 6 3.0 12.0 0.00 0.00 0.00 39 1010.7
20260504191602 75 293 2.0 12.0 0.00 0.00 0.00 38 1010.7
20260504191049 75 317 2.0 11.0 0.00 0.00 0.00 40 1010.7
20260504190549 75 254 2.0 10.0 0.00 0.00 0.00 38 1010.8
20260504190112 75 240 2.0 10.0 0.00 0.00 0.00 40 1010.9
20260504185549 75 321 3.0 7.0 0.00 0.00 0.00 37 1011.0
20260504185049 75 343 2.0 7.0 0.00 0.00 0.00 40 1011.1
20260504184557 74 317 1.0 11.0 0.00 0.00 0.00 37 1011.1
20260504184050 74 328 2.0 12.0 0.00 0.00 0.00 41 1011.2
20260504183550 74 185 5.0 12.0 0.00 0.00 0.00 38 1011.3
20260504183105 74 219 2.0 10.0 0.00 0.00 0.00 37 1011.3
20260504182551 73 289 2.0 13.0 0.00 0.00 0.00 41 1011.4
20260504182052 73 155 5.0 13.0 0.00 0.00 0.00 36 1011.4
20260504181558 74 300 3.0 11.0 0.00 0.00 0.00 37 1011.5
20260504181049 74 332 2.0 7.0 0.00 0.00 0.00 38 1011.4
20260504180550 74 311 3.0 7.0 0.00 0.00 0.00 37 1011.5
20260504180112 74 291 1.0 6.0 0.00 0.00 0.00 38 1011.6
20260504175552 74 0 1.0 4.0 0.00 0.00 0.00 36 1011.7
20260504175050 74 303 0.0 5.0 0.00 0.00 0.00 41 1011.7
20260504174557 74 283 0.0 10.0 0.00 0.00 0.00 41 1011.8
20260504174049 73 303 3.0 10.0 0.00 0.00 0.00 41 1011.8
20260504173550 72 177 1.0 8.0 0.00 0.00 0.00 42 1011.9
20260504173057 72 233 3.0 8.0 0.00 0.00 0.00 38 1012.0
20260504172549 73 86 3.0 9.0 0.00 0.00 0.00 38 1012.1
20260504172049 73 309 2.0 9.0 0.00 0.00 0.00 41 1012.1
20260504171553 72 0 3.0 10.0 0.00 0.00 0.00 40 1012.1
20260504171053 72 101 2.0 10.0 0.00 0.00 0.00 39 1012.2
20260504170550 72 300 3.0 10.0 0.00 0.00 0.00 41 1012.3
20260504151050 69 160 2.0 8.0 0.00 0.00 0.00 41 1013.5
20260504150550 69 285 1.0 6.0 0.00 0.00 0.00 42 1013.7
20260504141050 63 0 0.0 6.0 0.00 0.00 0.00 51 1013.8
20260504140552 62 282 0.0 4.0 0.00 0.00 0.00 52 1013.9
20260504130549 56 101 2.0 6.0 0.00 0.00 0.00 59 1014.1
20260504110549 44 0 0.0 1.0 0.00 0.00 0.00 81 1014.8
20260504100550 42 0 0.0 0.0 0.00 0.00 0.00 86 1014.7
20260504081556 40 0 0.0 0.0 0.00 0.00 0.00 86 1015.2
20260504081050 39 0 0.0 0.0 0.00 0.00 0.00 86 1015.2
20260504080550 39 0 0.0 0.0 0.00 0.00 0.00 86 1015.2